DECAYED

STARLINK-5898, 55929 (Decayed)

Orbit data source: Space-Track

STARLINK-5898, 55929 was a payload satellite owned by SpaceX/Seattle (US) in LEO that was launched on Fri, 17 Mar 2023 UTC via an FALCON 9 launch vehicle from the Air Force Western Test Range (AFWTR). Payload-class satellites include a variety of spacecraft equipped with specific instruments for various scientific and technological missions. These include communications satellites like Starlink; space stations such as the ISS; scientific satellites like the Hubble; Earth observation satellites from companies like Planet Labs, Umbra, and HawkEye 360; GPS; miniature CubeSats for education and research; and military/defense satellites.

Not visible in the next 10 days
Identifier
55929, 2023-037R
Orbit
Decayed
Last TLE update
2 months ago
Origin
Manufacturer
SpaceX/Seattle
Mission
Decayed Commercial Communications
Bus & Motor
STARLINK, Unknown motor
Mass
305 kg wet, ~290 kg dry
Launch date (UTC)
2023-03-17 (2 years ago)
Launch vehicle
FALCON 9
Launch site
Air Force Western Test Range (AFWTR)
Object type
Payload
Rocket body
Debris
Shape & HBR
Box + 1 Pan, 9 m
Radar Cross Section
11.087 m², Large (>1 m²)

Expand to show TLE details & history

TLE from 2 months ago
0 STARLINK-5898
1 55929U 23037R   25070.69172544  .15255062  44872-5  27346-3 0  9998
2 55929  69.9688 118.3608 0008209 251.8188 228.4522 16.47213240109978
Epoch: 2025-03-11T16:36Z
Definitive object data (Epoch: 2025-03-11T16:36:05.078Z)
Latitude
54.41537°
Longitude
-150.68922°
Altitude
158.634 km
Speed
7.815 km/s
True Right ascension
17h 51m 41s
True Declination
54° 14' 15"
Sunlit
Object was in daylight at TLE epoch
Visualization observer readout
Visualization observer readout
Orbital elements
Apogee altitude
149.856 km
Perigee altitude
139.147 km
Semi-major axis
6,522.639 km
Eccentricity
0.0008209
Inclination
69.9688°
RAAN
118.3608°
Arg. of periapsis
251.8188°
True anomaly
228.38185°
Mean anomaly
228.4522°
Eccentric anomaly
228.41702°
Mean motion
4.1201 °/min
BSTAR
0.00027346
Orbital period
87.38 mins
Loading maneuver chart data...
Loading SW <> Apogee altitude chart data...
Loading historical data...
Loading historical data...
Loading historical data...
Loading historical data...
Loading historical data...
Loading historical data...
Loading historical data...

STARLINK-5898 Visibility forecast

Observer location: undefined°, undefined°

This satellite is decayed
Span
Click to sort rows by Start time (UTC) header in descending order
Start Az.
Max El. time (UTC)
Max El. Az.
Max El.
End time (UTC)
End Az.
|